Dewpoint
21 14 11 11 14 17 18 16 15 14 14 14 13 12 13 15 13 14 15 16 16 16 17 17 17 19 23 26 29 53 63 66 66 65 64 64 64 65 65 65 64 64 64 63
25 16 16 16 15 14 14 13 12 13 14 14 13 13 14 14 12 13 14 16 16 17 17 20 22 20 21 23 30 45 61 65 65 65 64 64 64 65 65 64 64 64 63 63
22 24 25 20 19 17 17 15 15 15 16 16 14 15 16 17 18 19 19 19 24 40 46 48 48 46 46 38 32 43 59 64 65 65 64 61 61 61 61 62 62 63 63 63
18 19 17 16 19 21 19 21 20 19 17 15 16 15 17 18 18 19 23 30 45 46 46 45 45 46 48 49 51 45 57 64 65 65 64 62 61 61 61 62 62 61 62 62
19 21 19 18 18 18 17 21 20 20 19 17 17 17 17 18 17 25 42 46 46 45 45 44 44 45 46 46 48 53 52 62 63 64 64 62 61 61 61 61 59 61 61 61
20 22 21 19 20 19 19 17 20 20 19 16 16 16 14 15 27 40 43 42 42 42 43 43 43 44 45 44 47 50 57 61 63 64 64 62 61 59 59 60 59 59 60 61
24 19 20 25 22 24 22 19 15 16 17 14 20 20 17 38 41 41 41 42 41 39 40 41 40 40 41 43 44 48 53 62 63 64 63 62 61 59 59 59 59 58 58 57
23 16 23 22 26 23 24 19 16 15 18 17 23 20 22 39 41 40 40 41 39 38 37 37 38 38 39 41 44 44 49 62 63 63 62 61 59 59 59 59 59 58 58 58
24 23 23 23 22 18 22 23 26 24 22 21 19 23 37 39 39 41 40 39 37 36 34 35 36 36 37 39 42 44 48 61 62 62 60 59 59 59 59 58 58 58 58 59
26 17 23 23 17 19 24 27 24 27 20 16 18 21 22 35 37 39 39 37 36 34 33 33 33 34 36 38 41 44 46 51 60 61 61 60 59 59 58 58 58 58 57 57
24 23 20 18 17 16 16 16 25 30 28 24 18 21 37 37 39 40 36 35 34 33 31 31 31 33 34 37 39 42 43 46 51 58 60 59 59 58 58 58 57 57 56 56
27 23 21 17 19 20 19 27 30 17 19 25 25 25 38 37 37 37 35 35 32 30 30 30 31 32 32 34 36 39 40 43 47 51 58 57 59 59 58 57 57 57 56 56
25 20 15 8 12 19 20 21 26 29 28 23 23 28 37 36 36 36 35 31 29 29 29 29 30 31 32 33 34 36 39 41 43 48 57 58 58 58 58 57 57 57 57 55
28 23 17 11 13 23 21 20 20 23 18 21 22 24 35 36 35 33 33 29 28 28 28 28 29 30 31 32 33 35 37 39 40 43 55 57 58 58 57 58 58 58 56 57
25 21 23 23 23 23 20 18 19 19 20 19 21 28 34 34 32 32 29 28 28 27 28 28 28 30 30 32 32 33 35 37 38 39 41 45 51 52 52 50 50 49 49 50
28 17 24 22 19 17 17 17 18 20 23 23 21 29 35 34 32 28 28 27 26 26 27 28 28 29 29 31 32 32 33 35 36 36 36 38 41 44 43 42 43 43 41 41
25 22 18 12 15 16 13 20 20 19 32 30 30 32 32 29 27 26 26 26 25 26 26 27 28 29 30 30 32 31 32 33 34 34 35 34 35 36 36 36 36 36 37 37
20 19 18 14 17 8 23 32 29 28 32 34 33 33 31 27 27 27 27 25 25 26 26 27 28 28 30 30 30 30 30 31 31 32 33 34 33 32 32 32 32 33 33 34
21 19 12 11 15 18 23 31 30 29 26 30 29 30 28 27 25 25 28 28 27 28 28 28 29 29 29 29 30 29 28 28 28 29 30 32 32 32 31 30 30 31 31 31
21 21 15 18 16 16 25 30 35 35 22 28 25 26 29 28 26 22 28 28 27 28 27 27 29 28 28 28 28 26 26 26 26 27 28 29 32 31 30 30 30 30 30 29
19 21 17 17 17 23 28 31 34 26 24 27 25 26 29 26 26 27 28 27 27 27 28 28 28 28 27 27 26 24 23 24 26 27 27 27 28 30 30 30 29 29 29 28
25 23 21 22 20 18 30 30 27 29 29 27 25 26 25 25 25 25 26 26 25 25 25 26 26 26 29 27 25 23 23 25 25 25 25 25 26 27 28 28 28 28 27 26
22 27 25 25 23 30 30 29 33 31 28 28 26 26 25 23 23 24 24 24 24 25 25 25 25 25 26 27 27 24 25 24 24 23 23 24 25 25 26 25 25 25 25 25
28 31 27 25 28 28 29 29 30 29 28 28 27 27 25 23 23 23 23 23 23 24 23 24 23 22 23 25 26 28 26 24 22 22 22 23 24 23 24 24 24 23 23 23
26 28 26 25 28 28 28 28 28 28 27 26 26 25 24 23 23 23 22 22 23 23 23 22 21 21 21 22 23 25 26 26 22 20 20 20 20 21 23 24 23 23 25 25
28 26 24 21 28 27 27 30 29 26 25 25 23 22 24 22 22 23 21 21 21 20 20 19 20 19 20 21 21 22 24 25 25 24 21 19 18 19 19 21 23 26 26 25
Lifted_Index
9 8 7 7 8 9 8 7 6 6 6 6 7 7 7 7 7 7 7 7 7 7 7 7 6 6 5 5 4 1 -3 -6 -7 -6 -6 -6 -5 -5 -5 -5 -5 -5 -5 -5
8 7 7 7 8 8 7 6 6 6 6 6 6 6 7 7 7 6 6 6 6 6 6 6 5 5 5 4 4 2 -3 -6 -6 -6 -6 -6 -5 -5 -5 -5 -5 -5 -5 -5
8 7 7 7 6 6 5 5 5 5 5 5 5 5 5 6 6 6 5 5 5 4 3 3 3 4 4 3 3 2 -2 -5 -6 -6 -6 -6 -5 -5 -5 -5 -5 -5 -5 -5
7 7 6 6 6 5 4 5 5 5 4 4 4 3 3 4 5 5 4 3 2 2 1 1 2 2 2 2 1 0 -2 -5 -7 -7 -6 -5 -5 -4 -4 -5 -5 -4 -4 -4
6 6 6 5 5 5 4 5 5 5 4 3 3 3 3 4 5 4 2 1 1 1 1 1 1 1 0 -1 -1 -2 -3 -6 -7 -7 -6 -5 -5 -5 -4 -4 -4 -4 -3 -3
6 6 5 5 5 4 4 4 4 3 3 2 2 3 3 3 3 2 1 0 0 0 0 1 1 1 -1 -2 -3 -4 -5 -7 -8 -7 -7 -6 -5 -5 -4 -4 -4 -3 -3 -3
5 5 5 5 5 4 3 3 2 2 1 1 2 3 3 2 2 1 1 0 1 1 1 1 1 1 -0 -2 -3 -5 -6 -7 -8 -7 -7 -6 -5 -5 -5 -4 -4 -3 -3 -3
3 4 4 5 4 4 3 2 1 1 1 1 2 3 2 1 1 1 1 1 1 1 1 1 1 1 0 -1 -3 -5 -6 -8 -8 -7 -6 -6 -5 -5 -5 -4 -4 -4 -3 -3
3 3 4 5 5 4 4 3 2 1 1 1 2 2 2 1 1 1 1 2 2 2 2 2 2 1 -0 -1 -2 -3 -5 -7 -7 -7 -6 -5 -5 -5 -5 -5 -4 -4 -3 -3
5 5 5 6 6 5 5 4 3 1 1 0 1 2 2 1 1 1 1 2 3 3 3 3 2 1 0 -1 -2 -2 -4 -5 -6 -5 -5 -4 -4 -4 -4 -4 -4 -4 -3 -3
6 6 6 7 6 6 5 5 4 2 1 0 1 1 1 1 1 1 2 2 3 3 4 4 3 2 1 -0 -1 -2 -2 -3 -4 -3 -3 -2 -2 -2 -3 -3 -4 -3 -3 -3
7 6 5 6 6 6 5 5 4 3 2 1 1 1 1 1 1 2 2 2 3 3 4 4 3 2 1 0 -0 -1 -2 -2 -2 -1 -1 -1 -1 -1 -2 -2 -3 -3 -3 -3
6 6 5 4 5 5 4 4 4 3 2 2 1 1 2 1 1 1 2 3 3 4 4 4 4 3 2 1 0 -0 -1 -1 -1 -1 -0 -0 0 -0 -1 -2 -2 -2 -2 -2
6 5 4 3 4 4 4 4 4 3 3 3 2 2 2 1 1 1 2 3 4 4 4 4 4 3 3 2 1 1 0 -0 -1 -1 -0 -0 0 -0 -1 -1 -1 -1 -2 -2
5 4 4 4 4 4 4 3 3 3 3 3 3 2 2 2 2 2 3 4 4 4 4 4 4 4 4 3 3 2 1 1 0 -0 -0 -0 -0 -0 -0 -0 -1 -1 -2 -2
5 4 4 4 4 4 3 3 2 2 2 2 2 2 2 2 3 3 4 4 5 5 5 6 6 6 6 5 4 4 3 2 2 1 0 -0 -0 -0 -0 -0 -1 -1 -1 -1
5 5 4 3 3 3 2 2 1 1 1 1 1 2 2 3 4 5 5 5 5 6 6 7 8 8 8 8 7 6 5 4 3 3 2 2 1 0 -0 -0 -0 -0 -0 -0
5 5 4 3 2 2 2 1 1 1 1 1 1 2 3 4 6 7 7 6 6 7 8 9 10 10 11 11 10 9 8 7 6 5 5 5 4 3 2 1 0 0 0 0
4 4 3 2 2 2 2 2 1 1 1 2 2 3 4 5 6 7 7 8 8 9 9 10 12 12 12 12 12 11 9 8 8 7 8 8 8 7 6 3 2 2 2 2
3 3 3 2 2 2 2 2 2 2 2 3 3 4 4 5 5 6 8 9 9 10 10 11 12 12 12 12 12 11 10 10 10 10 10 10 10 9 9 7 6 6 5 4
2 2 2 2 2 2 3 3 3 2 3 4 4 4 5 5 6 7 8 10 10 10 10 11 11 12 12 12 12 11 10 11 12 12 11 11 11 11 11 10 10 10 9 8
2 2 2 2 3 3 4 4 4 4 5 5 5 5 6 6 7 8 9 10 10 10 10 11 11 11 12 13 12 11 11 12 13 13 12 12 13 12 12 12 12 11 11 10
2 2 2 2 3 4 5 5 5 5 6 6 6 7 7 7 7 8 9 9 10 10 11 11 11 11 12 13 12 12 12 13 13 13 12 13 13 13 13 13 13 12 12 12
3 3 3 3 3 5 5 6 6 6 6 6 7 7 7 7 8 8 9 9 10 11 11 12 11 11 12 13 13 13 14 14 14 13 13 13 13 14 14 14 14 14 13 13
3 3 3 3 4 5 5 6 6 6 7 7 7 8 8 8 8 9 9 10 10 11 12 12 12 11 12 13 14 15 15 15 15 14 14 14 14 14 14 15 15 15 15 15
3 3 3 3 4 5 5 6 7 7 7 7 7 8 8 9 9 9 10 10 11 11 12 12 12 12 13 14 15 16 17 17 16 15 15 15 15 15 15 15 15 16 16 17